• Join FlightAware (Why Join?)
  • Login
  • US Flag 
04:27AM EST


 

Airport Tracker/Info


-or-


 

Live Flight TrackerFlight Track Log ✈ EJA829P ✈ 03-Nov-2013 ✈ KAPC - KBUR

Flight Track Log - Related Links

Times and Time Zones

All times are in EST time to prevent confusion due to time zone crossing. See the EJA829P flight status page for this flight to view local times or setup timezone preferences in your user account.

Time Position Orientation Groundspeed Altitude Reporting Facility
EST Latitude Longitude Course Direction KTS MPH feet Rate Location/Type
07:24PM 38.1925 -122.3011 145° Southeast 225 259 1,200  Level Oakland Center
07:25PM 38.1703 -122.3756 249° West 249 287 4,900 3,902 Climbing Oakland Center
07:26PM 38.0986 -122.4028 197° South 269 310 9,200 3,610 Climbing Oakland Center
07:27PM 37.9931 -122.4275 190° South 328 377 12,300 2,878 Climbing Oakland Center
07:28PM 37.6817 -121.7296 139° Southeast  Level Estimated
07:28PM 37.9072 -122.3519 145° Southeast 378 435 15,100  Level Oakland Center
07:29PM 37.6011 -121.6589 145° Southeast  Level FlightAware Approximate
07:29PM 37.8264 -122.2631 139° Southeast 381 438 17,800  Level Oakland Center
07:30PM 37.7411 -122.1694 139° Southeast 400 460 19,600 1,707 Climbing Oakland Center
07:31PM 37.6508 -122.0739 140° Southeast 419 482 21,300 1,512 Climbing Oakland Center
07:32PM 37.5622 -121.9778 139° Southeast 421 484 22,700 1,328 Climbing Oakland Center
07:33PM 37.4758 -121.8839 139° Southeast 412 474 24,000 1,268 Climbing Oakland Center
07:34PM 37.3861 -121.7872 139° Southeast 420 483 25,300 1,317 Climbing Oakland Center
07:35PM 37.2894 -121.6850 140° Southeast 437 503 26,700 1,317 Climbing Oakland Center
07:36PM 37.1947 -121.5842 140° Southeast 446 513 28,000 1,122 Climbing Oakland Center
07:37PM 37.0825 -121.4650 140° Southeast 453 521 29,000 488 Climbing Oakland Center
07:38PM 36.9819 -121.3583 140° Southeast 469 540 29,000  Level Oakland Center
07:39PM 36.8789 -121.2511 140° Southeast 479 551 29,000  Level Oakland Center
07:40PM 36.7717 -121.1517 143° Southeast 480 552 29,000  Level Oakland Center
07:41PM 36.6594 -121.0656 148° Southeast 474 545 29,000  Level Oakland Center
07:42PM 36.5486 -120.9783 148° Southeast 473 544 29,000  Level Oakland Center
07:43PM 36.4364 -120.8925 148° Southeast 473 544 29,000  Level Oakland Center
07:45PM 36.3258 -120.8044 147° Southeast 473 544 29,000  Level Oakland Center
07:46PM 36.2142 -120.7189 148° Southeast 475 547 29,000  Level Oakland Center
07:47PM 36.0803 -120.6161 148° Southeast 472 543 29,000  Level Oakland Center
07:48PM 35.9686 -120.5294 148° Southeast 473 544 29,000  Level Oakland Center
07:49PM 35.8569 -120.4439 148° Southeast 473 544 29,000  Level Oakland Center
07:50PM 35.7461 -120.3592 148° Southeast 468 539 29,000  Level Oakland Center
07:51PM 35.6339 -120.2725 148° Southeast 471 542 29,000  Level Oakland Center
07:52PM 35.5211 -120.1853 148° Southeast 471 542 29,000 -293 Level Oakland Center
07:53PM 35.4061 -120.0983 148° Southeast 475 547 28,400 -857 Descending Oakland Center
07:53PM 35.3608 -120.0653 149° Southeast 472 543 27,700 -1,826 Descending Los Angeles Center
07:54PM 35.2294 -119.9678 149° Southeast 458 527 25,600 -1,790 Descending Los Angeles Center
07:55PM 35.1219 -119.8881 149° Southeast 451 519 24,000 -774 Descending Los Angeles Center
07:56PM 35.0319 -119.7817 136° Southeast 452 520 24,000  Level Los Angeles Center
07:57PM 34.9481 -119.6678 132° Southeast 452 520 24,000 -629 Level Los Angeles Center
07:58PM 34.8811 -119.5781 132° Southeast 451 519 22,700 -1,984 Descending Los Angeles Center
07:59PM 34.7842 -119.4481 132° Southeast 434 499 19,900 -2,544 Descending Los Angeles Center
08:00PM 34.6958 -119.3269 132° Southeast 401 461 17,400 -2,208 Descending Los Angeles Center
08:01PM 34.6219 -119.2300 133° Southeast 392 451 15,300 -1,839 Descending Los Angeles Center
08:03PM 34.5592 -119.1503 134° Southeast 372 428 13,600 -1,935 Descending Los Angeles Center
08:04PM 34.4814 -119.0444 132° Southeast 342 394 11,300 -1,887 Descending Los Angeles Center
08:05PM 34.4228 -118.9683 133° Southeast 308 354 9,700 -1,355 Descending Los Angeles Center
08:06PM 34.3722 -118.8986 131° Southeast 265 305 8,500 -823 Descending Los Angeles Center
08:07PM 34.3075 -118.8494 148° Southeast 256 295 8,000 -662 Descending Los Angeles Center
08:08PM 34.2556 -118.8144 151° Southeast 245 282 7,000 -832 Descending Los Angeles Center
08:09PM 34.1839 -118.7683 152° Southeast 211 243 6,100 -672 Descending Los Angeles Center
08:10PM 34.1872 -118.7058 86° East 214 246 5,600 -823 Descending Los Angeles Center
08:11PM 34.2028 -118.6458 73° East 200 230 4,400 -980 Descending Los Angeles Center
08:12PM 34.2000 -118.6000 94° East 178 205 4,000 -438 Descending Southern California TRACON
08:13PM 34.2000 -118.5500 90° East 173 199 3,700 -650 Descending Southern California TRACON
08:14PM 34.2000 -118.4833 90° East 167 192 2,700 -950 Descending Southern California TRACON
08:15PM 34.2000 -118.4333 90° East 162 186 1,800 -793 Descending Southern California TRACON
08:16PM 34.2000 -118.3833 90° East 130 150 1,100 -511 Descending Southern California TRACON
08:16PM 34.1986 -118.3683 96° East 156 180 1,000 -182 Descending Los Angeles Center
08:18PM 34.2000 -118.3500 85° East  Level FlightAware Approximate